CAPE
0 0 10 0 0 4 95 103 54 66 0 214 241 274 255 39 239 643 616 705 747 797 803 530 574 344 201 200 127 0 8 0 0 0 0 0 0 0 11 27 9 9 8 0
0 0 7 0 0 6 13 22 0 0 0 202 13 22 112 27 6 555 748 854 853 864 553 439 222 130 137 54 0 0 0 5 0 0 0 0 0 0 0 15 8 9 0 5
2 2 0 0 15 2 0 17 7 35 137 113 26 0 0 32 431 131 450 201 429 322 260 156 71 0 0 0 0 0 0 2 10 0 0 0 0 0 0 0 0 9 24 25
0 0 0 0 3 0 24 0 6 129 91 0 0 16 0 0 0 35 579 227 147 84 61 10 0 0 0 0 0 0 0 0 3 2 0 0 0 1 8 6 17 28 62 35
0 0 0 0 1 0 0 4 101 29 88 39 2 0 62 19 0 180 348 238 67 14 0 0 0 0 0 0 0 0 4 3 0 11 1 0 0 5 18 20 26 18 21 22
0 3 0 0 0 2 30 71 84 2 21 46 4 0 7 52 7 157 230 148 91 4 0 0 0 0 0 0 0 2 2 0 0 4 1 2 0 26 2 0 2 0 3 0
5 0 0 0 0 0 0 0 15 107 303 63 7 126 235 135 117 300 214 95 14 0 0 0 0 0 0 0 0 0 0 0 0 1 4 0 0 0 0 0 0 0 0 10
0 4 0 0 0 0 0 0 139 132 0 5 1 287 237 267 257 231 237 108 7 0 0 0 0 0 0 0 0 0 0 0 0 4 0 0 0 0 2 2 3 7 10 9
3 11 0 0 0 0 0 0 0 0 125 90 228 124 208 220 228 228 185 75 44 1 0 0 0 0 0 0 0 0 0 0 0 13 0 0 0 0 10 18 7 7 2 7
0 25 0 0 0 3 2 18 1 0 5 70 279 175 312 243 292 208 194 77 67 0 0 0 0 0 0 0 0 0 0 0 0 0 0 0 0 3 17 7 5 7 7 9
0 0 6 0 13 0 0 10 5 0 99 124 157 222 471 506 373 246 226 70 65 1 0 0 0 0 0 0 0 0 0 0 0 0 0 0 0 19 7 10 12 2 6 3
2 0 3 10 1 0 0 0 0 0 1 50 112 193 208 402 433 265 167 78 42 0 0 0 0 0 0 0 0 0 0 0 0 3 0 0 3 5 25 24 0 0 2 5
16 0 0 1 2 41 0 0 0 0 28 156 205 326 222 255 266 191 108 60 56 9 0 0 0 0 0 0 0 0 0 0 0 7 0 0 0 9 7 22 5 11 6 10
65 1 28 1 12 0 0 0 0 0 9 0 118 229 334 299 241 138 78 39 62 8 0 0 0 0 0 0 0 0 0 0 0 3 4 1 0 0 4 14 14 0 4 5
2 0 0 20 0 0 0 0 1 0 0 0 9 353 255 394 326 321 173 38 62 6 0 0 0 0 0 0 0 0 0 0 1 1 4 11 13 1 9 10 23 0 2 0
96 28 15 8 0 0 0 0 0 0 0 6 190 355 349 210 416 283 41 47 42 0 0 0 0 0 0 0 0 0 0 0 0 3 1 8 0 6 4 16 17 10 8 0
132 4 24 1 91 84 0 30 5 0 0 25 7 4 9 2 68 45 43 13 8 0 0 0 0 0 0 0 0 0 0 1 0 0 2 4 6 7 10 13 15 12 10 3
170 97 15 46 72 2 145 37 0 0 5 0 9 131 0 0 32 18 22 29 0 0 0 0 0 0 0 0 0 0 0 0 0 0 1 0 3 1 4 11 7 9 0 4
232 137 52 25 28 0 184 18 0 4 307 356 2 0 0 0 0 19 13 0 0 0 0 0 0 0 0 0 0 0 0 0 0 0 1 0 0 6 10 5 0 2 11 4
170 234 180 26 0 50 130 32 2 0 0 36 0 0 0 0 0 26 0 0 0 0 0 0 0 0 0 0 0 0 0 0 0 0 0 3 0 2 8 4 13 6 10 6
246 249 55 9 14 140 245 60 0 0 15 0 0 0 0 53 310 60 0 0 0 0 0 0 0 0 0 0 0 0 0 0 0 0 1 4 6 5 16 4 11 3 9 12
218 240 77 29 15 97 91 53 16 9 0 0 0 0 0 210 76 5 0 0 0 0 0 0 0 0 0 0 0 0 0 0 0 0 0 5 7 4 6 2 6 34 28 12
151 62 231 159 75 270 74 422 106 1 0 0 0 0 0 0 0 0 0 0 0 0 0 0 0 0 0 0 0 0 0 0 0 0 0 2 2 2 3 16 12 17 13 16
167 239 49 15 15 270 108 181 322 0 1 0 1 0 0 0 0 0 0 0 0 0 0 0 0 0 0 0 0 0 0 0 0 0 0 0 0 7 12 19 14 14 21 21
168 109 168 117 82 38 208 211 158 20 4 16 19 0 0 0 0 0 0 0 0 0 0 0 0 0 0 0 0 0 0 0 0 0 0 3 5 0 25 17 16 11 23 10
91 65 0 278 320 360 230 168 153 74 1 43 26 0 0 0 0 0 0 0 0 0 0 0 0 0 0 0 0 0 0 0 0 0 0 0 0 0 3 6 17 12 9 1
CIN
-0 -0 -7 -0 -0 -12 -2 -18 -24 -50 -0 -2 -1 -8 -7 -78 -51 -2 -11 -16 -17 -2 -8 -18 -27 -74 -152 -185 -249 -2 -400 -0 -0 -0 -0 -0 -0 -0 -8 -36 -44 -30 -46 -0
-1 -12 -4 -0 -0 -4 -14 -36 -0 -12 -2 -4 -21 -130 -133 -244 -51 -1 -10 -12 -21 -13 -17 -44 -51 -122 -183 -313 -0 -0 -0 -1 -0 -0 -0 -0 -0 -0 -0 -6 -11 -10 -0 -3
-3 -2 -0 -0 -5 -11 -0 -22 -4 -5 -21 -117 -114 -0 -0 -91 -113 -61 -11 -11 -11 -16 -18 -54 -109 -6 -0 -0 -0 -0 -0 -0 -3 -0 -0 -0 -0 -0 -0 -0 -0 -2 -3 -5
-0 -7 -0 -0 -12 -0 -2 -0 -2 -36 -23 -0 -0 -36 -0 -0 -0 -232 -3 -15 -2 -22 -50 -143 -13 -0 -0 -0 -0 -0 -0 -0 -3 -4 -0 -0 -0 -0 -5 -4 -1 -3 -4 -14
-0 -0 -0 -0 -39 -0 -0 -3 -39 -109 -101 -100 -41 -0 -26 -61 -0 -45 -9 -2 -32 -54 -0 -0 -0 -0 -0 -0 -0 -0 -7 -6 -0 -2 -4 -0 -0 -2 -1 -2 -4 -17 -12 -17
-0 -2 -0 -0 -0 -63 -26 -12 -59 -72 -72 -98 -120 -0 -0 -47 -40 -110 -22 -12 -5 -5 -0 -0 -0 -0 -0 -0 -0 -6 -11 -0 -0 -1 -0 -4 -0 -1 -4 -0 -1 -0 -5 -4
-4 -0 -0 -0 -0 -0 -0 -0 -7 -22 -10 -93 -89 -141 -12 -49 -81 -15 -2 -5 -29 -0 -0 -0 -0 -0 -0 -0 -0 -0 -0 -0 -0 -5 -6 -0 -0 -0 -0 -0 -0 -0 -0 -2
-1 -29 -1 -0 -0 -0 -0 -0 -3 -9 -0 -48 -17 -58 -29 -28 -37 -72 -79 -48 -81 -0 -0 -0 -0 -0 -0 -0 -2 -0 -0 -0 -0 -4 -0 -0 -0 -0 -6 -5 -4 -3 -1 -2
-63 -10 -9 -0 -0 -0 -0 -0 -0 -0 -15 -12 -56 -157 -51 -41 -42 -52 -38 -54 -86 -15 -0 -0 -0 -0 -0 -0 -3 -0 -4 -0 -0 -11 -2 -0 -0 -0 -4 -9 -6 -3 -1 -2
-0 -10 -2 -0 -0 -41 -8 -52 -13 -0 -22 -5 -51 -41 -2 -42 -7 -15 -7 -8 -42 -0 -0 -0 -0 -0 -0 -0 -0 -0 -0 -0 -0 -0 -11 -0 -0 -2 -5 -10 -2 -3 -4 -2
-0 -0 -9 -0 -14 -0 -0 -3 -8 -0 -14 -7 -13 -6 -6 -1 -5 -12 -2 -22 -17 -3 -0 -0 -0 -0 -0 -0 -0 -0 -0 -0 -0 -1 -0 -0 -0 -5 -7 -7 -1 -4 -4 -3
-4 -0 -6 -35 -0 -0 -0 -0 -0 -0 -2 -34 -13 -115 -51 -4 -7 -15 -4 -24 -58 -0 -0 -0 -0 -0 -0 -0 -0 -0 -0 -0 -0 -29 -0 -0 -1 -13 -4 -1 -0 -0 -3 -2
-3 -0 -0 -27 -22 -46 -0 -0 -0 -0 -52 -21 -3 -7 -79 -41 -46 -40 -16 -37 -71 -97 -0 -0 -0 -0 -0 -0 -0 -0 -0 -0 -0 -8 -0 -0 -0 -11 -8 -4 -6 -1 -5 -8
-33 -2 -1 -36 -10 -0 -0 -0 -0 -0 -30 -0 -7 -8 -7 -7 -14 -45 -16 -38 -51 -22 -0 -0 -0 -0 -0 -0 -0 -0 -0 -0 -0 -1 -9 -8 -0 -0 -8 -4 -8 -0 -4 -17
-44 -0 -1 -2 -0 -0 -0 -0 -1 -0 -0 -0 -18 -6 -21 -5 -33 -5 -13 -21 -58 -20 -0 -0 -0 -0 -0 -0 -0 -0 -0 -0 -0 -2 -1 -5 -5 -3 -10 -10 -1 -0 -9 -0
-10 -7 -7 -6 -0 -0 -0 -0 -0 -0 -0 -1 -15 -13 -16 -10 -7 -14 -17 -40 -65 -0 -0 -0 -0 -0 -0 -0 -0 -0 -0 -0 -0 -1 -1 -1 -0 -9 -4 -12 -3 -12 -1 -0
-10 -2 -9 -0 -4 -2 -0 -10 -2 -0 -0 -56 -11 -21 -11 -1 -10 -28 -53 -3 -23 -0 -0 -0 -0 -0 -0 -0 -0 -0 -0 -1 -0 -0 -2 -2 -0 -3 -6 -5 -3 -9 -1 -6
-10 -9 -13 -3 -4 -8 -17 -44 -0 -0 -18 -0 -67 -25 -0 -0 -3 -2 -3 -19 -0 -0 -0 -0 -0 -0 -0 -0 -0 -0 -0 -0 -0 -0 -1 -1 -0 -2 -1 -4 -3 -5 -0 -5
-18 -9 -6 -20 -3 -1 -8 -85 -0 -68 -13 -20 -7 -0 -0 -0 -0 -35 -31 -0 -0 -0 -0 -0 -0 -0 -0 -0 -0 -0 -0 -0 -0 -0 -0 -0 -0 -1 -2 -2 -0 -8 -7 -5
-14 -13 -5 -10 -0 -6 -17 -98 -87 -0 -0 -114 -0 -0 -0 -0 -0 -24 -0 -0 -0 -0 -0 -0 -0 -0 -0 -0 -0 -0 -0 -0 -0 -0 -0 -0 -1 -1 -1 -4 -3 -7 -11 -8
-8 -7 -8 -4 -8 -4 -11 -69 -0 -0 -85 -0 -0 -0 -0 -35 -25 -57 -0 -0 -0 -0 -0 -0 -0 -0 -0 -0 -0 -0 -0 -0 -0 -0 -1 -1 -1 -6 -4 -3 -3 -3 -9 -14
-47 -4 -5 -4 -8 -1 -11 -59 -43 -75 -0 -0 -0 -0 -0 -64 -83 -91 -0 -0 -0 -0 -0 -0 -0 -0 -0 -0 -0 -0 -0 -0 -0 -0 -0 -0 -3 -2 -5 -4 -7 -4 -7 -11
-9 -31 -10 -18 -55 -22 -16 -19 -78 -39 -0 -0 -0 -0 -0 -3 -0 -0 -0 -0 -0 -0 -0 -0 -0 -0 -0 -0 -0 -0 -0 -0 -0 -0 -0 -0 -6 -3 -6 -7 -13 -13 -11 -5
-29 -12 -18 -14 -18 -6 -9 -9 -34 -0 -13 -15 -18 -0 -0 -0 -0 -0 -0 -0 -0 -0 -0 -0 -0 -0 -0 -0 -0 -0 -0 -0 -0 -0 -0 -0 -1 -15 -14 -12 -11 -7 -4 -8
-10 -26 -25 -4 -13 -23 -4 -10 -4 -12 -29 -54 -81 -0 -0 -0 -0 -0 -0 -0 -0 -0 -0 -0 -0 -0 -0 -0 -0 -0 -0 -0 -0 -0 -0 -8 -2 -1 -11 -11 -11 -9 -3 -15
-21 -8 -0 -10 -20 -23 -13 -3 -10 -8 -0 -25 -44 -0 -0 -0 -0 -0 -0 -0 -0 -0 -0 -0 -0 -0 -0 -0 -0 -0 -0 -0 -0 -0 -0 -0 -0 -0 -6 -11 -18 -29 -33 -35
Wind_Speed
21 15 12 11 11 11 22 19 20 17 17 14 17 19 18 22 15 26 23 20 21 25 27 28 29 28 29 31 33 36 36 38 38 36 37 36 35 35 34 32 34 34 35 37
17 7 14 18 19 21 21 23 17 7 12 14 6 20 17 23 18 26 21 21 23 24 27 29 29 28 28 29 33 35 37 37 38 37 37 35 35 34 34 31 34 35 33 34
16 7 17 16 19 19 21 11 20 6 16 21 19 21 24 8 15 10 19 23 28 26 26 27 28 28 31 30 33 34 35 36 37 38 36 36 35 33 34 33 34 33 31 31
10 12 21 18 16 20 16 24 26 26 16 10 25 19 7 16 21 9 20 24 25 25 24 26 27 29 30 31 31 33 34 35 36 37 38 38 36 35 34 33 32 32 30 32
14 16 15 15 10 22 24 25 22 25 22 19 9 2 7 14 14 16 21 21 22 22 25 28 30 29 30 31 32 31 32 35 37 37 37 37 35 33 32 33 33 34 32 33
22 13 18 16 21 20 23 20 6 19 12 14 3 11 13 16 18 13 19 21 22 23 27 27 28 30 30 31 31 30 32 35 36 35 36 36 36 35 35 34 33 30 31 33
13 13 14 10 7 22 22 15 2 12 12 6 16 19 19 13 15 17 22 22 23 26 27 27 27 30 31 30 30 30 32 33 35 34 35 36 34 33 34 31 29 27 28 28
11 12 14 15 20 23 9 9 15 3 8 15 29 24 11 20 21 21 23 22 24 26 26 28 27 30 30 30 30 31 31 31 32 33 34 35 32 30 29 27 27 24 22 17
14 10 10 17 22 23 10 8 9 6 9 19 16 14 13 14 16 19 21 22 24 25 25 28 28 29 30 31 30 32 29 29 32 30 32 33 30 29 27 27 26 25 22 19
11 9 11 15 13 13 9 5 12 6 13 18 14 18 15 11 14 18 18 20 23 22 26 27 27 28 30 30 30 31 30 31 31 29 30 31 29 26 26 27 26 26 23 24
18 15 13 10 14 18 11 5 17 9 14 15 17 21 22 15 15 17 19 20 20 23 25 26 26 28 30 30 29 30 30 30 30 27 30 30 28 25 25 26 25 24 24 25
17 14 15 19 19 16 11 17 21 18 17 22 16 13 24 18 17 17 19 20 22 18 22 25 27 27 29 29 28 30 29 29 28 26 28 30 26 25 24 23 25 24 23 23
15 12 8 20 22 11 14 19 16 19 13 17 7 17 9 17 18 17 18 21 17 19 22 24 25 27 28 27 28 28 28 27 25 24 27 28 25 25 25 22 23 23 22 24
17 17 14 11 3 20 10 13 13 15 14 17 23 16 14 12 11 16 17 18 17 20 22 23 23 25 27 27 26 27 27 26 23 22 25 26 25 24 26 25 23 23 23 25
16 17 23 17 19 19 12 13 15 16 16 14 17 23 22 14 13 16 17 15 15 19 21 22 22 23 26 26 25 26 26 25 21 21 23 23 24 25 24 24 23 24 24 24
15 17 22 23 19 16 12 8 11 11 15 13 22 19 14 18 17 18 15 13 17 20 21 21 21 22 23 25 25 26 25 22 21 20 22 22 23 23 23 23 22 25 21 23
9 17 18 24 20 22 12 20 12 14 11 15 16 16 18 14 13 14 11 12 16 18 19 19 19 21 22 24 24 25 24 21 23 20 21 22 20 23 23 24 24 24 23 23
12 13 19 27 9 24 12 14 14 12 11 12 15 18 17 14 14 16 16 17 17 17 18 19 19 20 21 22 23 24 22 24 23 22 20 22 20 23 23 23 22 23 24 24
20 13 17 22 24 27 9 13 14 16 16 14 15 17 16 16 14 12 15 17 17 18 17 18 19 19 20 22 22 24 23 25 23 22 21 21 19 19 22 23 21 20 21 22
14 17 18 19 23 25 7 10 13 15 14 15 17 17 16 13 10 15 15 14 15 17 17 16 17 17 20 21 20 23 24 25 24 21 20 20 19 15 19 21 19 19 19 21
17 17 16 18 18 16 11 9 13 17 14 15 18 18 16 16 16 15 15 15 14 15 15 16 15 17 18 19 20 22 23 24 23 21 19 20 19 14 17 18 16 17 18 18
22 21 15 18 21 17 6 12 18 11 13 14 17 19 16 15 14 12 13 13 13 13 14 12 15 16 16 17 20 21 23 21 22 21 21 19 21 18 17 13 12 13 14 15
13 22 18 17 19 19 14 16 11 10 11 12 14 17 16 13 11 11 13 13 13 12 13 13 14 15 15 15 18 20 21 20 21 22 21 19 19 18 18 14 14 9 16 13
18 18 20 19 16 11 13 13 11 10 10 10 11 13 15 13 11 10 11 12 12 12 13 12 14 13 14 14 15 17 18 19 19 20 19 18 16 15 14 17 16 17 17 16
19 18 20 23 24 24 14 11 8 7 8 9 9 10 12 12 10 10 11 11 11 11 11 13 13 15 14 14 15 15 17 18 19 20 18 16 19 19 15 16 13 17 17 14
24 23 21 21 21 21 19 14 8 9 9 7 7 9 10 10 10 9 10 11 11 10 11 12 13 14 15 14 14 14 15 17 18 19 21 21 18 17 17 16 18 13 14 13
Wind_Direction
175 174 184 144 106 173 356 350 339 287 22 54 53 60 28 353 83 53 54 48 48 46 39 32 32 28 24 23 21 17 16 13 9 10 6 4 1 359 2 3 0 357 352 348
190 152 228 316 317 332 336 34 53 113 69 35 23 14 2 320 327 41 66 76 66 54 43 33 35 31 28 29 23 21 19 18 14 12 11 8 5 2 1 3 1 357 357 355
175 27 327 360 343 347 326 315 359 90 30 3 336 334 32 111 321 283 39 36 49 42 42 39 39 34 26 28 25 24 23 20 18 15 13 10 7 7 6 3 1 1 4 3
299 119 292 300 273 322 342 326 314 337 12 38 324 358 80 47 36 200 52 43 49 48 50 39 36 26 27 25 27 26 26 23 21 18 15 12 11 10 11 9 10 8 8 6
242 340 343 350 34 305 302 337 10 23 24 22 348 359 83 93 65 113 60 56 48 50 42 32 29 27 25 23 24 28 28 27 23 19 18 18 17 18 17 14 11 9 11 8
203 325 36 84 329 328 301 3 48 5 40 37 167 128 316 58 74 76 59 51 52 45 35 31 29 24 22 24 25 28 28 24 21 22 21 22 18 21 20 18 20 20 15 9
111 136 35 73 194 348 303 263 161 54 71 68 61 61 48 74 81 73 51 48 42 33 28 23 27 20 20 23 26 26 27 24 23 25 26 23 25 25 25 28 30 29 27 28
85 66 34 37 351 325 228 87 40 218 253 37 354 4 92 48 47 47 41 43 33 26 26 23 27 18 19 24 26 27 28 28 29 28 29 29 31 32 34 36 35 40 45 51
25 137 16 353 346 342 238 229 233 173 249 32 46 62 57 42 61 49 42 40 30 25 30 21 24 20 22 25 27 26 32 33 30 36 33 32 35 37 40 39 42 47 53 53
88 79 99 30 42 57 141 235 81 154 56 36 55 52 57 73 55 46 41 40 34 33 26 23 25 25 25 27 30 31 32 31 31 37 36 35 38 42 42 43 47 48 51 52
299 329 34 83 21 283 229 159 32 94 46 49 40 39 43 65 66 43 42 36 39 37 30 31 28 28 27 26 30 32 32 32 35 41 40 38 41 43 46 47 50 52 51 48
297 340 332 345 302 272 98 32 24 39 34 19 30 38 20 40 44 42 39 41 35 51 45 32 28 29 28 30 33 33 34 35 39 48 43 39 44 45 47 52 51 52 53 51
298 322 157 326 312 190 78 27 50 33 49 40 52 29 83 41 41 47 47 34 54 56 40 34 31 31 30 33 34 35 37 39 44 49 41 44 47 46 48 52 55 55 55 52
284 291 311 55 168 325 57 53 54 52 49 37 28 47 54 56 68 55 45 41 54 40 41 38 39 34 32 35 37 37 39 41 46 49 48 47 50 49 47 50 57 57 56 52
285 294 229 290 333 351 36 37 41 39 40 50 36 34 31 55 31 41 43 43 44 40 38 39 40 38 34 37 38 39 41 43 49 50 50 51 51 50 50 51 56 55 56 54
287 289 271 273 306 347 32 71 58 73 55 64 34 30 37 30 44 39 36 50 36 28 32 37 41 40 39 38 38 39 42 47 49 52 52 52 49 53 52 52 52 49 58 57
293 288 296 255 303 297 230 341 66 51 73 57 41 48 40 45 48 37 62 57 33 27 34 40 44 43 43 40 40 40 44 50 46 51 53 53 55 52 54 52 52 47 52 55
291 298 294 261 350 272 13 15 17 40 48 55 53 39 35 40 48 40 63 48 29 29 30 37 42 43 44 43 43 42 46 45 47 50 53 54 57 52 51 52 54 55 50 50
272 294 299 293 291 277 13 26 44 39 31 41 38 37 39 40 42 56 45 44 33 24 32 36 42 45 46 42 44 42 45 42 47 49 51 54 58 57 51 50 54 57 57 58
279 283 295 303 304 297 43 32 24 24 19 29 29 32 36 48 46 50 50 48 41 28 32 42 46 48 44 42 46 42 41 40 43 48 51 52 55 60 57 50 53 57 58 59
273 280 292 299 309 332 358 12 6 353 4 21 24 25 34 41 48 55 49 45 45 36 36 40 45 39 40 43 43 40 40 40 42 47 50 50 53 56 61 54 55 55 59 62
274 275 292 295 297 313 354 349 334 15 25 19 18 18 36 52 57 60 53 48 48 48 36 47 38 38 41 42 38 37 37 43 42 45 45 48 47 49 50 57 61 55 52 57
312 249 299 315 305 311 335 338 4 9 12 17 23 25 33 43 56 66 54 51 46 44 31 30 31 32 39 43 38 35 37 43 40 40 43 45 46 50 51 53 50 52 50 55
311 309 307 303 315 330 330 343 345 351 3 16 27 29 30 41 59 61 53 46 39 34 25 26 24 30 33 38 38 37 39 40 38 37 40 42 44 44 47 45 47 44 45 47
317 319 312 305 307 303 321 331 343 358 3 10 23 24 27 35 47 58 48 39 32 29 24 16 19 17 23 33 34 36 36 36 33 32 34 35 35 35 39 37 42 40 41 43
310 303 303 310 323 328 330 341 352 338 341 356 3 10 18 26 37 49 39 32 27 24 19 14 11 12 18 23 28 32 32 31 28 26 25 26 30 28 23 25 36 37 34 35